TimeCDT,TemperatureF,Dew PointF,Humidity,Sea Level PressureIn,VisibilityMPH,Wind Direction,Wind SpeedMPH,Gust SpeedMPH,PrecipitationIn,Events,Conditions,WindDirDegrees,DateUTC
12:15 AM,81.0,64.4,57,29.78,10.0,South,10.4,-,N/A,,Clear,180,2013-09-09 05:15:00
12:35 AM,82.0,62.6,52,29.78,10.0,South,13.8,18.4,N/A,,Clear,180,2013-09-09 05:35:00
12:55 AM,81.3,61.2,50,29.78,10.0,South,11.5,-,N/A,,Clear,190,2013-09-09 05:55:00
1:15 AM,81.1,59.9,48,29.77,10.0,South,13.8,19.6,N/A,,Clear,190,2013-09-09 06:15:00
1:35 AM,80.6,58.8,47,29.76,10.0,South,13.8,-,N/A,,Clear,190,2013-09-09 06:35:00
1:55 AM,80.1,58.3,47,29.76,10.0,SSW,13.8,18.4,N/A,,Clear,200,2013-09-09 06:55:00
2:15 AM,79.7,57.6,47,29.77,10.0,SSW,13.8,18.4,N/A,,Clear,200,2013-09-09 07:15:00
2:35 AM,80.1,56.7,45,29.77,10.0,SSW,12.7,19.6,N/A,,Clear,210,2013-09-09 07:35:00
2:55 AM,79.5,56.1,44,29.77,10.0,SSW,11.5,18.4,N/A,,Clear,200,2013-09-09 07:55:00
3:15 AM,78.8,55.8,45,29.77,10.0,SSW,11.5,18.4,N/A,,Clear,200,2013-09-09 08:15:00
3:35 AM,77.7,55.9,47,29.76,10.0,SSW,11.5,-,N/A,,Clear,200,2013-09-09 08:35:00
3:55 AM,77.2,55.8,47,29.75,10.0,SSW,11.5,-,N/A,,Clear,200,2013-09-09 08:55:00
4:15 AM,77.0,55.8,48,29.75,10.0,SSW,12.7,19.6,N/A,,Clear,210,2013-09-09 09:15:00
4:35 AM,76.3,55.8,49,29.75,10.0,SSW,9.2,-,N/A,,Clear,210,2013-09-09 09:35:00
4:55 AM,75.4,55.9,51,29.75,10.0,SSW,6.9,-,N/A,,Clear,210,2013-09-09 09:55:00
5:15 AM,73.8,56.3,54,29.76,10.0,SSW,8.1,-,N/A,,Clear,210,2013-09-09 10:15:00
5:35 AM,73.4,56.3,55,29.76,10.0,SW,5.8,-,N/A,,Clear,220,2013-09-09 10:35:00
5:55 AM,72.3,56.3,57,29.75,10.0,SSW,9.2,-,N/A,,Clear,200,2013-09-09 10:55:00
6:15 AM,71.1,56.5,60,29.75,10.0,South,8.1,-,N/A,,Clear,190,2013-09-09 11:15:00
6:35 AM,70.0,56.5,62,29.76,10.0,South,5.8,-,N/A,,Clear,190,2013-09-09 11:35:00
6:55 AM,70.0,56.3,62,29.76,10.0,South,5.8,-,N/A,,Clear,190,2013-09-09 11:55:00
7:15 AM,69.8,56.3,62,29.75,10.0,South,5.8,-,N/A,,Clear,190,2013-09-09 12:15:00
7:35 AM,70.2,55.9,61,29.77,10.0,Calm,Calm,-,N/A,,Clear,0,2013-09-09 12:35:00
7:55 AM,72.5,55.9,56,29.77,10.0,SW,3.5,-,N/A,,Clear,220,2013-09-09 12:55:00
8:15 AM,72.7,57.0,58,29.78,10.0,SSW,5.8,-,N/A,,Clear,210,2013-09-09 13:15:00
8:35 AM,74.5,57.2,55,29.78,10.0,SSW,6.9,-,N/A,,Clear,210,2013-09-09 13:35:00
8:55 AM,76.6,57.6,52,29.78,10.0,SSW,6.9,-,N/A,,Clear,200,2013-09-09 13:55:00
9:15 AM,79.2,57.2,47,29.77,10.0,SSW,9.2,-,N/A,,Clear,210,2013-09-09 14:15:00
9:35 AM,80.6,56.7,44,29.78,10.0,SW,11.5,-,N/A,,Clear,230,2013-09-09 14:35:00
9:55 AM,81.7,56.8,43,29.78,10.0,SW,9.2,-,N/A,,Clear,230,2013-09-09 14:55:00
10:15 AM,83.1,56.1,40,29.79,10.0,WSW,11.5,16.1,N/A,,Clear,250,2013-09-09 15:15:00
10:35 AM,83.5,55.8,39,29.79,10.0,West,12.7,-,N/A,,Clear,260,2013-09-09 15:35:00
10:55 AM,83.8,57.4,40,29.79,10.0,West,11.5,19.6,N/A,,Clear,280,2013-09-09 15:55:00
11:15 AM,82.8,59.4,45,29.80,10.0,West,10.4,-,N/A,,Clear,270,2013-09-09 16:15:00
11:35 AM,82.9,61.9,49,29.80,10.0,WNW,9.2,-,N/A,,Clear,300,2013-09-09 16:35:00
11:55 AM,83.1,62.8,50,29.80,10.0,WNW,6.9,-,N/A,,Clear,290,2013-09-09 16:55:00
12:15 PM,84.4,63.3,49,29.80,10.0,WNW,9.2,-,N/A,,Clear,300,2013-09-09 17:15:00
12:35 PM,85.3,62.1,46,29.80,10.0,NW,6.9,-,N/A,,Clear,310,2013-09-09 17:35:00
12:55 PM,86.2,61.7,44,29.80,10.0,NW,6.9,-,N/A,,Clear,310,2013-09-09 17:55:00
1:15 PM,87.1,61.9,43,29.80,10.0,NW,8.1,-,N/A,,Clear,310,2013-09-09 18:15:00
1:35 PM,86.9,60.1,40,29.80,10.0,NW,6.9,-,N/A,,Clear,310,2013-09-09 18:35:00
1:55 PM,87.3,60.8,41,29.80,10.0,WNW,6.9,-,N/A,,Clear,300,2013-09-09 18:55:00
2:15 PM,87.6,61.5,41,29.80,10.0,NNW,4.6,-,N/A,,Clear,340,2013-09-09 19:15:00
2:55 PM,88.5,60.8,39,29.80,10.0,NW,6.9,-,N/A,,Clear,310,2013-09-09 19:55:00
3:15 PM,88.5,61.2,40,29.80,10.0,NNW,5.8,-,N/A,,Clear,330,2013-09-09 20:15:00
3:35 PM,89.1,62.4,41,29.80,10.0,NW,6.9,-,N/A,,Clear,310,2013-09-09 20:35:00
3:55 PM,88.9,62.6,41,29.79,10.0,NW,6.9,-,N/A,,Clear,310,2013-09-09 20:55:00
4:15 PM,89.1,62.4,41,29.80,10.0,WNW,3.5,-,N/A,,Clear,300,2013-09-09 21:15:00
4:35 PM,89.1,62.6,41,29.79,10.0,NNW,6.9,-,N/A,,Clear,340,2013-09-09 21:35:00
4:55 PM,89.1,64.0,43,29.79,10.0,NW,9.2,-,N/A,,Clear,320,2013-09-09 21:55:00
5:15 PM,88.7,63.9,43,29.79,10.0,NNW,8.1,-,N/A,,Clear,340,2013-09-09 22:15:00
5:35 PM,88.5,63.9,44,29.80,10.0,NNW,9.2,-,N/A,,Clear,340,2013-09-09 22:35:00
5:55 PM,87.8,64.4,46,29.80,10.0,NNW,6.9,-,N/A,,Clear,330,2013-09-09 22:55:00
6:15 PM,87.8,64.8,46,29.80,10.0,North,5.8,-,N/A,,Clear,350,2013-09-09 23:15:00
6:35 PM,86.0,64.4,48,29.81,10.0,North,9.2,-,N/A,,Clear,350,2013-09-09 23:35:00
6:55 PM,83.7,64.0,51,29.81,10.0,North,9.2,-,N/A,,Clear,360,2013-09-09 23:55:00
7:15 PM,82.6,62.6,51,29.82,10.0,North,10.4,-,N/A,,Clear,10,2013-09-10 00:15:00
7:35 PM,81.0,61.9,52,29.83,10.0,North,10.4,18.4,N/A,,Clear,10,2013-09-10 00:35:00
7:55 PM,78.8,60.1,53,29.84,10.0,North,11.5,-,N/A,,Clear,10,2013-09-10 00:55:00
8:15 PM,77.2,59.4,54,29.85,10.0,North,9.2,-,N/A,,Clear,10,2013-09-10 01:15:00
8:35 PM,75.9,59.2,56,29.86,10.0,North,9.2,-,N/A,,Clear,360,2013-09-10 01:35:00
8:55 PM,73.9,60.1,62,29.88,10.0,North,6.9,-,N/A,,Clear,360,2013-09-10 01:55:00
9:15 PM,73.6,60.4,63,29.88,10.0,North,9.2,-,N/A,,Clear,360,2013-09-10 02:15:00
9:35 PM,72.9,60.8,66,29.88,10.0,North,10.4,-,N/A,,Clear,350,2013-09-10 02:35:00
9:55 PM,72.9,60.3,65,29.89,10.0,North,8.1,-,N/A,,Clear,360,2013-09-10 02:55:00
10:15 PM,72.1,60.8,67,29.89,10.0,North,8.1,-,N/A,,Clear,10,2013-09-10 03:15:00
10:35 PM,70.7,61.0,71,29.89,10.0,NNE,6.9,-,N/A,,Clear,20,2013-09-10 03:35:00
10:55 PM,70.9,61.3,72,29.90,10.0,NNE,6.9,-,N/A,,Clear,30,2013-09-10 03:55:00
11:15 PM,69.8,61.2,74,29.91,10.0,NNE,4.6,-,N/A,,Clear,20,2013-09-10 04:15:00
11:35 PM,68.9,60.8,75,29.92,10.0,North,4.6,-,N/A,,Clear,10,2013-09-10 04:35:00
11:55 PM,68.2,60.8,77,29.92,10.0,NNE,3.5,-,N/A,,Clear,20,2013-09-10 04:55:00